Content
SEND FEEDBACK

Daily
Averages
Monthly
Summary
Canada

BANFF, ALBERTA


Home > North America > Canada > Alberta
Elevation: 4583 feet     Latitude: 51 11N     Longitude: 115 34W

WEATHER
 
SELECT A DAY
Number of Records: 134,270;   Date Range: 1/1/95 - 10/19/14
 
SHARE

PRINT THIS DATA

[ ← Previous Day ]
WEATHER ALMANAC - JANUARY 1, 2013
[ Next Day → ]
[ °C ]   °F
Weather ElementAverageHighLow
Temperature15.2 °F21.2 °F (3:00 pm)10.8 °F (8:00 pm)
Dewpoint7.7 °F10.9 °F (1:00 am)5.5 °F (8:00 pm)
Humidity72.6 %80 % (8:00 am)57 % (2:00 pm)
Barometer30.42 in30.56 in (8:00 pm)30.27 in (1:00 am)
Wind Speed7.7 mph12.7 mph (5:00 am)
Wind Gust20.7 mph (5:00 am)
Weather ElementAverage
Wind DirectionWSW (241.4 °)

Weather ElementTotal
Precipitation---
Heating Degree Days49 (Base 65)
Averaged from 22 records on January 1, 2013
WEATHER CONDITIONS BREAKOUT
WIND DIRECTION BREAKOUT
WEATHER BY HOUR - JANUARY 1, 2013
[ °C ]   °F
Local TimeTemperatureDewpointHumidityBarometerVisibilityWind DirectionWind SpeedGust SpeedPrecipitationEventsConditions
1:00 AM18.0 °F10.9 °F74 %30.27 inSW (230°)10.4 mph19.6 mph
2:00 AM16.5 °F10.6 °F77 %30.27 inWest (260°)6.9 mph
3:00 AM16.3 °F10.2 °F77 %30.29 inWSW (250°)5.8 mph
4:00 AM16.0 °F9.7 °F76 %30.32 inSW (230°)3.5 mph
5:00 AM15.4 °F9.3 °F77 %30.34 inWSW (240°)12.7 mph20.7 mph
6:00 AM14.7 °F8.8 °F77 %30.36 inWSW (250°)8.1 mph
7:00 AM13.1 °F7.7 °F79 %30.38 inSW (220°)6.9 mph
8:00 AM12.2 °F7.0 °F80 %30.39 inSW (230°)9.2 mph
9:00 AM12.0 °F6.6 °F79 %30.42 inSW (230°)10.4 mph18.4 mph
10:00 AM12.2 °F6.1 °F76 %30.44 inSW (230°)12.7 mph20.7 mph
11:00 AM15.6 °F6.1 °F66 %30.44 inSW (230°)9.2 mph
12:00 PM17.8 °F5.7 °F59 %30.43 inWSW (250°)6.9 mph
1:00 PM19.4 °F7.3 °F60 %30.42 inWSW (240°)11.5 mph
2:00 PM20.7 °F7.7 °F57 %30.41 inSW (230°)8.1 mph
3:00 PM21.2 °F8.1 °F57 %30.42 inWSW (240°)10.4 mph
4:00 PM17.4 °F8.4 °F68 %30.45 inWSW (240°)6.9 mph
5:00 PM16.2 °F8.2 °F71 %30.48 inWSW (240°)6.9 mph
6:00 PM13.6 °F7.0 °F75 %30.51 inWSW (240°)3.5 mph
7:00 PM12.9 °F6.4 °F75 %30.54 inWSW (240°)4.6 mph
8:00 PM10.8 °F5.5 °F79 %30.56 inWest (270°)3.5 mph
9:00 PM11.7 °F6.3 °F79 %30.56 inWest (270°)4.6 mph
10:00 PM11.1 °F5.9 °F80 %30.56 inWSW (250°)6.9 mph
Hourly data recorded from CWZG, located miles away from Banff, Alberta







STORIES FROM OUR PARTNERS